User: anonymous   Login
Location: Nairn
(57.5833°N, 3.8667°W)
Time: 00:54:24
(UTC+00:00)
Language:

Cosmos 1378 Rocket - Orbit

View from above orbital plane
View from above orbital plane
View from above satellite
View from above satellite

Ground track
Ground track

The orbit data is extracted from the following two-line orbital elements,

1 13272U 82059B   20292.92053106 +.00000061 +00000-0 +43545-5 0  9993
2 13272 082.5101 072.9796 0019729 052.3944 307.9059 14.84720450051799
Epoch (UTC): 18 October 2020 22:05:33
Eccentricity: 0.0019729
inclination: 82.5101°
perigee height: 600 km
apogee height: 628 km
right ascension of ascending node: 72.9796°
argument of perigee: 52.3944°
revolutions per day: 14.84720450
mean anomaly at epoch: 307.9059°
orbit number at epoch: 5179

The dashed part of the orbit path shows where the satellite is in the earth's shadow,  

DLR